TimeEST,TemperatureF,Dew PointF,Humidity,Sea Level PressureIn,VisibilityMPH,Wind Direction,Wind SpeedMPH,Gust SpeedMPH,PrecipitationIn,Events,Conditions,WindDirDegrees,DateUTC
12:54 AM,16.0,12.9,88,29.95,8.0,East,4.6,-,0.00,Snow,Light Snow,90,2013-12-18 05:54:00
1:28 AM,15.8,12.2,86,29.94,7.0,Calm,Calm,-,0.00,Snow,Light Snow,0,2013-12-18 06:28:00
1:54 AM,17.1,12.9,84,29.95,4.0,Calm,Calm,-,0.00,Snow,Light Snow,0,2013-12-18 06:54:00
2:09 AM,15.8,12.2,86,29.94,2.5,Calm,Calm,-,0.00,Snow,Light Snow,0,2013-12-18 07:09:00
2:30 AM,17.6,12.2,79,29.95,2.5,Calm,Calm,-,0.00,Snow,Light Snow,0,2013-12-18 07:30:00
2:54 AM,17.1,12.9,84,29.96,4.0,Calm,Calm,-,0.01,Snow,Light Snow,0,2013-12-18 07:54:00
3:09 AM,17.6,14.0,86,29.95,3.0,East,3.5,-,0.00,Snow,Light Snow,90,2013-12-18 08:09:00
3:31 AM,15.8,14.0,93,29.95,6.0,East,4.6,-,0.00,Snow,Light Snow,100,2013-12-18 08:31:00
3:48 AM,17.6,14.0,86,29.95,7.0,East,3.5,-,0.00,Snow,Light Snow,100,2013-12-18 08:48:00
3:54 AM,17.1,14.0,88,29.96,5.0,East,3.5,-,0.00,Snow,Light Snow,100,2013-12-18 08:54:00
4:16 AM,17.6,14.0,86,29.95,2.5,East,3.5,-,0.00,Snow,Light Snow,80,2013-12-18 09:16:00
4:37 AM,17.6,14.0,86,29.95,2.0,East,3.5,-,0.00,Snow,Light Snow,90,2013-12-18 09:37:00
4:54 AM,17.1,14.0,88,29.97,2.5,East,3.5,-,0.00,Snow,Light Snow,80,2013-12-18 09:54:00
5:21 AM,17.6,14.0,86,29.95,4.0,East,3.5,-,0.00,Snow,Light Snow,80,2013-12-18 10:21:00
5:54 AM,17.1,14.0,88,29.97,8.0,East,4.6,-,0.00,Snow,Light Snow,100,2013-12-18 10:54:00
5:57 AM,17.6,14.0,86,29.95,7.0,East,4.6,-,0.00,Snow,Light Snow,100,2013-12-18 10:57:00
6:09 AM,17.6,14.0,86,29.96,2.5,Calm,Calm,-,0.00,Snow,Light Snow,0,2013-12-18 11:09:00
6:15 AM,17.6,14.0,86,29.96,4.0,Calm,Calm,-,0.00,Snow,Light Snow,0,2013-12-18 11:15:00
6:41 AM,17.6,14.0,86,29.97,5.0,Calm,Calm,-,0.00,Snow,Light Snow,0,2013-12-18 11:41:00
6:48 AM,17.6,14.0,86,29.97,5.0,Calm,Calm,-,0.00,Snow,Light Snow,0,2013-12-18 11:48:00
6:54 AM,17.1,14.0,88,29.99,6.0,Calm,Calm,-,0.00,Snow,Light Snow,0,2013-12-18 11:54:00
7:02 AM,17.6,14.0,86,29.97,7.0,Calm,Calm,-,0.00,Snow,Light Snow,0,2013-12-18 12:02:00
7:54 AM,14.0,12.0,92,29.99,5.0,Calm,Calm,-,0.00,,Scattered Clouds,0,2013-12-18 12:54:00
8:54 AM,17.1,15.1,92,30.00,6.0,Calm,Calm,-,N/A,,Mostly Cloudy,0,2013-12-18 13:54:00
9:18 AM,28.4,23.0,80,29.99,2.0,WSW,16.1,23.0,0.00,Snow,Light Snow,240,2013-12-18 14:18:00
9:28 AM,28.4,23.0,80,29.99,2.5,WSW,12.7,-,0.00,Snow,Light Snow,240,2013-12-18 14:28:00
9:30 AM,28.4,23.0,80,29.99,3.0,WSW,13.8,-,0.00,Snow,Light Snow,250,2013-12-18 14:30:00
9:54 AM,28.9,21.9,75,29.99,10.0,WSW,17.3,-,0.00,,Scattered Clouds,250,2013-12-18 14:54:00
10:54 AM,30.0,19.9,66,30.00,10.0,West,13.8,-,N/A,,Scattered Clouds,260,2013-12-18 15:54:00
11:54 AM,30.9,19.9,64,29.99,10.0,WSW,18.4,-,N/A,,Scattered Clouds,250,2013-12-18 16:54:00
12:54 PM,30.9,19.0,61,29.99,10.0,WSW,15.0,-,N/A,,Overcast,240,2013-12-18 17:54:00
1:54 PM,30.9,19.9,64,29.99,10.0,WSW,16.1,-,N/A,,Overcast,250,2013-12-18 18:54:00
2:54 PM,32.0,19.9,61,30.00,10.0,WSW,11.5,-,N/A,,Overcast,240,2013-12-18 19:54:00
3:54 PM,30.9,21.0,67,30.01,10.0,WSW,13.8,-,N/A,,Overcast,250,2013-12-18 20:54:00
4:54 PM,30.0,21.0,69,30.02,10.0,WSW,12.7,-,N/A,,Overcast,250,2013-12-18 21:54:00
5:54 PM,30.0,21.0,69,30.04,10.0,SW,10.4,-,N/A,,Mostly Cloudy,230,2013-12-18 22:54:00
6:54 PM,28.9,21.0,72,30.06,10.0,WSW,10.4,-,N/A,,Partly Cloudy,240,2013-12-18 23:54:00
7:54 PM,28.9,19.9,69,30.06,10.0,WSW,11.5,-,N/A,,Partly Cloudy,240,2013-12-19 00:54:00
8:54 PM,30.0,21.0,69,30.07,10.0,SW,12.7,-,N/A,,Overcast,230,2013-12-19 01:54:00
9:54 PM,30.0,21.0,69,30.07,10.0,WSW,11.5,-,0.00,Snow,Light Snow,240,2013-12-19 02:54:00
10:54 PM,30.0,23.0,75,30.07,6.0,SW,9.2,-,0.00,Snow,Light Snow,230,2013-12-19 03:54:00
11:07 PM,30.2,23.0,75,30.06,5.0,WSW,8.1,-,0.00,Snow,Light Snow,250,2013-12-19 04:07:00
11:48 PM,28.4,24.8,86,30.06,10.0,Calm,Calm,-,0.00,,Overcast,0,2013-12-19 04:48:00
11:54 PM,28.9,24.1,82,30.06,10.0,Calm,Calm,-,0.00,,Overcast,0,2013-12-19 04:54:00